Showing default

UMBRA-09, 60541

Orbit data source: Space-Track

UMBRA-09, 60541 is a payload satellite owned by Umbra Labs (US) in SSO that was launched on Fri, 16 Aug 2024 UTC via an FALCON 9 launch vehicle from the Air Force Western Test Range (AFWTR). Payload-class satellites include a variety of spacecraft equipped with specific instruments for various scientific and technological missions. These include communications satellites like Starlink; space stations such as the ISS; scientific satellites like the Hubble; Earth observation satellites from companies like Planet Labs, Umbra, and HawkEye 360; GPS; miniature CubeSats for education and research; and military/defense satellites.

Loading next visibility...
Identifier
60541, 2024-149CB
Orbit
SSO
Country
Flag of USUS
Related business
Manufacturer
Umbra Labs
Mission
Operational Commercial Radar Imaging
Bus & Motor
ESPASAT?, Unknown motor
Mass
84 kg wet, 79 kg dry
Launch date (UTC)
2024-08-16 (1 year ago)
Launch vehicle
FALCON 9
Launch site
Air Force Western Test Range (AFWTR)
Object type
Payload
Rocket body
Debris
Shape & HBR
Box + 2 Pan + 1 Dish, 2.0 m
Radar Cross Section
1.219 m², Large (>1 m²)

Expand to show TLE details & history
Last TLE update: 18 hours ago

TLE from 18 hours ago
0 UMBRA-09
1 60541U 24149CB  25252.22959000  .00015353  00000-0  10278-2 0  9996
2 60541  97.7196 331.6029 0001833 214.0279 146.0831 15.07007779 58246
Epoch: 2025-09-09T05:30Z
TLE epoch observation values (Epoch: 2025-09-09T05:30:36.576Z)
Latitude
0.00002°
Longitude
-99.57286°
Altitude
549.466 km
Speed
7.587 km/s
True Right ascension
22h 06m 24s
True Declination
0° 00' 00"
Sunlit
Object was in full shadow at epoch
Visualization orbit readout
Latitude
Unknown
Longitude
Unknown
Altitude
Unknown
Speed
Unknown
Apparent Right ascension
Unknown
Apparent Declination
Unknown
Sunlit
N/A
Visualization observer readout
Local Sidereal Time
15:33:02
Azimuth
Unknown
Elevation
Unknown
Doppler factor
Unknown
Orbital elements
Apogee altitude
543.615 km
Perigee altitude
541.078 km
Semi-major axis
6,920.483 km
Eccentricity
0.00018
Inclination
97.7196°
RAAN
331.6029°
Arg. of periapsis
214.0279°
True anomaly
146.09482°
Mean anomaly
146.0831°
Eccentric anomaly
146.08896°
Mean motion
3.76998 °/min
Orbital period
95.49 mins
BSTAR
0.0010278
Loading maneuver chart data...
Computing Atmospheric mass density...
Loading historical data...
Loading historical data...
Loading historical data...
Loading historical data...
Loading historical data...
Loading historical data...
Loading historical data...

Documentation

Showing up to 5 results
|